Williams Lake, British Columbia

9:55 AM PST on February 21, 2017 (GMT -0800)
Williams Lake

Weather History for CYWL - September, 2013

Change the Weather History Date:

Monday, September 16, 2013

  Actual Average Record
Temperature  
Mean Temperature 52 °F -  
Max Temperature 57 °F 52 °F 78 °F (2008)
Min Temperature 48 °F 34 °F 24 °F (2006)
Degree Days  
Heating Degree Days 12    
Growing Degree Days 2 (Base 50)    
Moisture  
Dew Point 52 °F    
Average Humidity 94    
Maximum Humidity 100    
Minimum Humidity 88    
Precipitation  
Precipitation 0.20 in - - ()
Sea Level Pressure  
Sea Level Pressure 29.76 in    
Wind  
Wind Speed 5 mph ()    
Max Wind Speed 13 mph    
Max Gust Speed 23 mph    
Visibility 9.0 miles    
Events Fog , Rain    
Averages and records for this station are not official NWS values.
T = Trace of Precipitation, MM = Missing Value Source: Averaged Metar Reports

Daily Weather History Graph

Daily Weather History Graph

Search for Another Location

Airport or City:

Trip Planner

Search our weather history database for the weather conditions in past years. The results will help you decide how hot, cold, wet, or windy it might be!

Date:

Astronomy

Sep. 16, 2013 Rise Set
Actual Time 6:44 AM PDT 7:19 PM PDT
Civil Twilight 6:10 AM PDT 7:53 PM PDT
Nautical Twilight 5:30 AM PDT 8:34 PM PDT
Astronomical Twilight 4:46 AM PDT 9:17 PM PDT
Moon 5:45 PM PDT (9/16) 3:19 AM PDT (9/16)
Length of Visible Light 13h 42m
Length of Day
12h 34m
Waxing Gibbous, 91% of the Moon is Illuminated
Sep 16
Waxing Gibbous
Sep 19
Full
Sep 26
Last Quarter
Oct 4
New
Oct 11
First Quarter

Hourly Weather History & Observations

Time (PDT) Temp. Dew Point Humidity Pressure Visibility Wind Dir Wind Speed Gust Speed Precip Events Conditions
12:00 AM 57.2 °F 55.4 °F 94% 29.68 in 15.0 mi Variable 2.3 mph - N/A   Mostly Cloudy
1:00 AM 57.2 °F 55.4 °F 94% 29.66 in 15.0 mi East 4.6 mph - N/A   Scattered Clouds
2:00 AM 57.2 °F 53.6 °F 88% 29.64 in 15.0 mi Variable 2.3 mph - N/A   Mostly Cloudy
3:00 AM 57.2 °F 55.4 °F 94% 29.63 in 15.0 mi SSW 2.3 mph - N/A Rain Light Rain
4:00 AM 57.2 °F 55.4 °F 94% 29.62 in 15.0 mi SSE 6.9 mph - N/A Rain Light Rain
5:00 AM 56 °F 55 °F 94% 29.61 in 15 mi NW 3.5 mph - - Rain Light Rain
5:00 AM 55.4 °F 55.4 °F 100% 29.60 in 15.0 mi NW 3.5 mph - N/A Rain Light Rain
6:00 AM 55.4 °F 53.6 °F 94% 29.62 in 15.0 mi SSE 5.8 mph - N/A   Overcast
7:00 AM 55.4 °F 53.6 °F 94% 29.64 in 10.0 mi SW 3.5 mph - N/A Rain Light Rain
7:47 AM 55.4 °F 53.6 °F 94% 29.64 in 6.0 mi South 4.6 mph - N/A Rain Light Rain
8:00 AM 55.4 °F 53.6 °F 94% 29.65 in 4.0 mi WSW 3.5 mph - N/A Rain Light Rain
8:26 AM 53.6 °F 51.8 °F 94% 29.66 in 4.0 mi West 12.7 mph 23.0 mph N/A Rain Rain Showers
9:00 AM 53.6 °F 51.8 °F 94% 29.70 in 5.0 mi WNW 8.1 mph 19.6 mph N/A Rain Light Rain Showers
10:00 AM 51.8 °F 50.0 °F 94% 29.73 in 6.0 mi West 6.9 mph - N/A Rain Light Rain Showers
11:00 AM 51.8 °F 50.0 °F 94% 29.76 in 5.0 mi SSW 3.5 mph - N/A Rain Rain Showers
11:24 AM 51.8 °F 51.8 °F 100% 29.77 in 5.0 mi South 4.6 mph - N/A Rain Rain Showers
12:00 PM 51.8 °F 51.8 °F 100% 29.79 in 5.0 mi South 4.6 mph - N/A Rain Light Rain Showers
12:21 PM 51.8 °F 51.8 °F 100% 29.80 in 5.0 mi SSE 4.6 mph - N/A Rain Light Rain Showers
1:00 PM 53.6 °F 51.8 °F 94% 29.80 in 4.0 mi ESE 4.6 mph - N/A Rain Rain Showers
1:19 PM 53.6 °F 51.8 °F 94% 29.80 in 6.0 mi SE 8.1 mph - N/A Rain Light Rain Showers
1:36 PM 53.6 °F 51.8 °F 94% 29.81 in 6.0 mi SSE 6.9 mph - N/A Rain Light Rain Showers
1:49 PM 53.6 °F 50.0 °F 88% 29.81 in 10.0 mi SSE 6.9 mph - N/A   Overcast
2:00 PM 53.6 °F 51.8 °F 94% 29.81 in 10.0 mi SSE 4.6 mph - N/A   Overcast
2:20 PM 53.6 °F 51.8 °F 94% 29.81 in 10.0 mi SE 5.8 mph - N/A Rain Light Rain Showers
2:49 PM 55.4 °F 53.6 °F 94% 29.80 in 10.0 mi ESE 9.2 mph - N/A   Overcast
3:00 PM 55.4 °F 53.6 °F 94% 29.80 in 10.0 mi SE 8.1 mph - N/A   Overcast
4:00 PM 55.4 °F 51.8 °F 88% 29.79 in 10.0 mi SE 8.1 mph - N/A   Overcast
4:32 PM 55.4 °F 51.8 °F 88% 29.80 in 10.0 mi SE 10.4 mph - N/A Rain Light Rain Showers
4:49 PM 55.4 °F 53.6 °F 94% 29.79 in 10.0 mi SE 6.9 mph - N/A   Mostly Cloudy
5:00 PM 55 °F 53 °F 90% 29.80 in 12 mi ESE 8.1 mph - - Rain Light Rain Showers
5:00 PM 55.4 °F 53.6 °F 94% 29.80 in 12.0 mi SE 8.1 mph - N/A   Mostly Cloudy
5:19 PM 55.4 °F 51.8 °F 88% 29.81 in 10.0 mi SE 4.6 mph - N/A Rain Light Rain Showers
5:40 PM 55.4 °F 51.8 °F 88% 29.80 in 12.0 mi ESE 10.4 mph - N/A   Mostly Cloudy
6:00 PM 53.6 °F 51.8 °F 94% 29.80 in 12.0 mi ESE 10.4 mph - N/A   Mostly Cloudy
7:00 PM 53.6 °F 51.8 °F 94% 29.80 in 15.0 mi East 5.8 mph - N/A   Mostly Cloudy
8:00 PM 51.8 °F 51.8 °F 100% 29.82 in 15.0 mi Calm Calm - N/A   Scattered Clouds
9:00 PM 50.0 °F 50.0 °F 100% 29.85 in 15.0 mi ESE 4.6 mph - N/A   Scattered Clouds
9:46 PM 50.0 °F 48.2 °F 94% 29.85 in 0.5 mi NW 6.9 mph - N/A Fog Fog
10:00 PM 48.2 °F 48.2 °F 100% 29.86 in 0.5 mi NW 3.5 mph - N/A Fog Fog
10:50 PM 48.2 °F 48.2 °F 100% 29.88 in 1.0 mi Calm Calm - N/A   Mostly Cloudy
11:00 PM 48 °F 48 °F 100% 29.88 in 1 mi WNW 1.2 mph - - Fog Light Fog
11:00 PM 48.2 °F 48.2 °F 100% 29.88 in 1.5 mi Calm Calm - N/A   Mostly Cloudy